LGL9473 ELLX-EDDB

Flight info

Callsign LGL9473
Flight time 1h 6m
Altitude 23000
Route ASMOX Y891 ROPUV/N0410F290 L607 UBIDU L984 RUDUS/N0370F230 Z10 TOBAK N858 MAXOT T212 RELKO T278 KLF KLF1R
Aircraft B738/M-SDE2E3FGHIRWXY/LB1

Departure

Time 2026-05-07 10:46
Airport Luxembourg-Findel International Airport (ELLX)

Arrival

Time 2026-05-07 11:52
Airport Berlin Brandenburg Airport (EDDB)
Time Latitude Longitude Altitude Speed Heading
2026-05-07 10:26 49.63390 6.21792 1229 ft 0 kts 330°
2026-05-07 10:37 49.63381 6.21801 1229 ft 3 kts 330°
2026-05-07 10:37 49.63366 6.21814 1229 ft 2 kts 330°
2026-05-07 10:37 49.63351 6.21830 1229 ft 3 kts 300°
2026-05-07 10:37 49.63348 6.21855 1229 ft 3 kts 252°
2026-05-07 10:38 49.63355 6.21879 1229 ft 1 kts 240°
2026-05-07 10:38 49.63358 6.21887 1229 ft 0 kts 240°
2026-05-07 10:40 49.63357 6.21884 1229 ft 1 kts 240°
2026-05-07 10:40 49.63342 6.21846 1229 ft 7 kts 240°
2026-05-07 10:40 49.63279 6.21823 1229 ft 11 kts 153°
2026-05-07 10:41 49.63202 6.21894 1227 ft 8 kts 150°
2026-05-07 10:41 49.63143 6.21857 1225 ft 14 kts 233°
2026-05-07 10:41 49.63092 6.21696 1224 ft 19 kts 245°
2026-05-07 10:41 49.63030 6.21491 1226 ft 23 kts 245°
2026-05-07 10:42 49.62961 6.21266 1231 ft 23 kts 243°
2026-05-07 10:42 49.62885 6.21028 1232 ft 26 kts 244°
2026-05-07 10:42 49.62810 6.20788 1237 ft 24 kts 238°
2026-05-07 10:42 49.62679 6.20604 1241 ft 27 kts 218°
2026-05-07 10:43 49.62552 6.20385 1231 ft 27 kts 229°
2026-05-07 10:43 49.62456 6.20170 1220 ft 25 kts 240°
2026-05-07 10:43 49.62352 6.19895 1203 ft 34 kts 240°
2026-05-07 10:43 49.62244 6.19604 1187 ft 30 kts 240°
2026-05-07 10:44 49.62131 6.19297 1172 ft 35 kts 240°
2026-05-07 10:44 49.62009 6.18969 1160 ft 33 kts 240°
2026-05-07 10:44 49.61896 6.18751 1156 ft 18 kts 217°
2026-05-07 10:44 49.61799 6.18752 1157 ft 15 kts 148°
2026-05-07 10:45 49.61802 6.18887 1162 ft 14 kts 60°
2026-05-07 10:45 49.61903 6.19161 1166 ft 65 kts 59°
2026-05-07 10:45 49.62255 6.20106 1218 ft 135 kts 60°
2026-05-07 10:45 49.62819 6.21636 1351 ft 187 kts 59°
2026-05-07 10:46 49.63468 6.23488 2288 ft 199 kts 61°
2026-05-07 10:46 49.64096 6.25403 3236 ft 204 kts 63°
2026-05-07 10:46 49.64784 6.27393 3736 ft 221 kts 58°
2026-05-07 10:46 49.65647 6.29518 4066 ft 243 kts 58°
2026-05-07 10:47 49.66548 6.31798 4650 ft 256 kts 59°
2026-05-07 10:47 49.67473 6.34229 5094 ft 275 kts 60°
2026-05-07 10:47 49.68499 6.36755 6032 ft 277 kts 49°
2026-05-07 10:47 49.70051 6.38495 6899 ft 280 kts 20°
2026-05-07 10:48 49.71964 6.38924 7725 ft 281 kts 352°
2026-05-07 10:48 49.73842 6.38151 8604 ft 281 kts 337°
2026-05-07 10:48 49.75669 6.36987 9457 ft 285 kts 335°
2026-05-07 10:48 49.77505 6.35767 10258 ft 289 kts 335°
2026-05-07 10:49 49.79421 6.34510 10598 ft 312 kts 335°
2026-05-07 10:49 49.81506 6.33169 10842 ft 334 kts 336°
2026-05-07 10:49 49.83711 6.31837 11413 ft 345 kts 343°
2026-05-07 10:49 49.86116 6.31523 12135 ft 352 kts
2026-05-07 10:50 49.87692 6.32142 12681 ft 356 kts 21°
2026-05-07 10:50 49.89766 6.34258 13465 ft 363 kts 45°
2026-05-07 10:50 49.91124 6.37561 14144 ft 368 kts 70°
2026-05-07 10:50 49.91787 6.42737 15080 ft 372 kts 83°
2026-05-07 10:51 49.92119 6.46732 15743 ft 376 kts 84°
2026-05-07 10:51 49.92431 6.50798 16414 ft 380 kts 84°
2026-05-07 10:51 49.92642 6.53549 16881 ft 382 kts 84°
2026-05-07 10:51 49.92960 6.57613 17565 ft 386 kts 84°
2026-05-07 10:52 49.93294 6.61768 18231 ft 390 kts 84°
2026-05-07 10:52 49.93639 6.65964 18818 ft 393 kts 84°
2026-05-07 10:52 49.93991 6.70194 19383 ft 397 kts 84°
2026-05-07 10:52 49.94350 6.74478 19950 ft 401 kts 84°
2026-05-07 10:53 49.94711 6.78786 20497 ft 405 kts 84°
2026-05-07 10:53 49.95077 6.83154 21030 ft 410 kts 84°
2026-05-07 10:53 49.95444 6.87558 21559 ft 413 kts 84°
2026-05-07 10:53 49.95813 6.92004 22088 ft 417 kts 84°
2026-05-07 10:54 49.96184 6.96497 22591 ft 421 kts 84°
2026-05-07 10:54 49.96557 7.01041 23102 ft 426 kts 84°
2026-05-07 10:54 49.96931 7.05624 23589 ft 430 kts 84°
2026-05-07 10:54 49.97307 7.10247 24009 ft 434 kts 84°
2026-05-07 10:55 49.97684 7.14905 24467 ft 436 kts 84°
2026-05-07 10:55 49.98062 7.19591 24977 ft 436 kts 84°
2026-05-07 10:55 49.98436 7.24252 25611 ft 433 kts 84°
2026-05-07 10:55 49.98805 7.28880 26262 ft 429 kts 84°
2026-05-07 10:56 49.99165 7.33423 26820 ft 429 kts 84°
2026-05-07 10:56 49.99528 7.38022 27309 ft 430 kts 84°
2026-05-07 10:56 49.99889 7.42638 27848 ft 429 kts 85°
2026-05-07 10:56 50.00248 7.47235 28438 ft 427 kts 85°
2026-05-07 10:57 50.00603 7.51803 28989 ft 426 kts 85°
2026-05-07 10:57 50.00958 7.56414 29012 ft 433 kts 85°
2026-05-07 10:57 50.01667 7.65679 29019 ft 428 kts 85°
2026-05-07 10:58 50.02362 7.74831 29032 ft 427 kts 85°
2026-05-07 10:58 50.03052 7.84040 29035 ft 430 kts 85°
2026-05-07 10:59 50.03734 7.93222 29035 ft 431 kts 85°
2026-05-07 10:59 50.04461 8.02490 29025 ft 433 kts 79°
2026-05-07 11:00 50.05441 8.06916 29039 ft 434 kts 64°
2026-05-07 11:00 50.07081 8.10859 29034 ft 435 kts 49°
2026-05-07 11:00 50.11576 8.17128 29038 ft 434 kts 39°
2026-05-07 11:01 50.16215 8.23159 29038 ft 435 kts 39°
2026-05-07 11:01 50.20822 8.29302 29029 ft 435 kts 40°
2026-05-07 11:02 50.25410 8.35502 29034 ft 436 kts 40°
2026-05-07 11:02 50.29982 8.41716 29023 ft 436 kts 41°
2026-05-07 11:03 50.34390 8.48173 29028 ft 436 kts 43°
2026-05-07 11:03 50.38834 8.54635 29014 ft 435 kts 40°
2026-05-07 11:04 50.43291 8.61009 29004 ft 434 kts 51°
2026-05-07 11:04 50.46344 8.69112 29009 ft 431 kts 70°
2026-05-07 11:05 50.48402 8.77881 28996 ft 431 kts 72°
2026-05-07 11:05 50.50439 8.86809 29005 ft 432 kts 72°
2026-05-07 11:06 50.52478 8.95626 29008 ft 433 kts 71°
2026-05-07 11:06 50.54557 9.04534 28995 ft 434 kts 71°
2026-05-07 11:07 50.56636 9.13450 28998 ft 434 kts 72°
2026-05-07 11:07 50.58711 9.22375 28998 ft 434 kts 72°
2026-05-07 11:08 50.60779 9.31315 28985 ft 434 kts 72°
2026-05-07 11:08 50.62837 9.40246 28989 ft 433 kts 72°
2026-05-07 11:09 50.64884 9.49168 28995 ft 433 kts 72°
2026-05-07 11:09 50.66920 9.58043 28993 ft 433 kts 72°
2026-05-07 11:10 50.68960 9.66994 28991 ft 434 kts 72°
2026-05-07 11:10 50.70987 9.75947 28994 ft 433 kts 72°
2026-05-07 11:11 50.73007 9.84905 28980 ft 431 kts 72°
2026-05-07 11:11 50.75012 9.93836 28984 ft 431 kts 73°
2026-05-07 11:12 50.76991 10.02731 28978 ft 432 kts 73°
2026-05-07 11:12 50.78980 10.11679 28972 ft 431 kts 73°
2026-05-07 11:13 50.80965 10.20634 28974 ft 430 kts 73°
2026-05-07 11:13 50.82935 10.29557 28972 ft 429 kts 73°
2026-05-07 11:14 50.84893 10.38464 28986 ft 429 kts 73°
2026-05-07 11:14 50.86836 10.47339 28978 ft 428 kts 73°
2026-05-07 11:15 50.88779 10.56258 28978 ft 428 kts 73°
2026-05-07 11:15 50.90717 10.65188 28996 ft 429 kts 73°
2026-05-07 11:16 50.92654 10.74155 28986 ft 430 kts 73°
2026-05-07 11:16 50.94582 10.83121 28991 ft 429 kts 73°
2026-05-07 11:17 50.96500 10.92075 28992 ft 427 kts 73°
2026-05-07 11:17 50.98399 11.00983 28984 ft 425 kts 73°
2026-05-07 11:18 51.00272 11.09803 28996 ft 424 kts 73°
2026-05-07 11:18 51.02147 11.18678 28990 ft 424 kts 73°
2026-05-07 11:19 51.04014 11.27553 28976 ft 424 kts 73°
2026-05-07 11:19 51.05878 11.36451 28993 ft 425 kts 73°
2026-05-07 11:20 51.07741 11.45385 28985 ft 426 kts 73°
2026-05-07 11:20 51.09600 11.54337 28964 ft 426 kts 73°
2026-05-07 11:21 51.11451 11.63282 28987 ft 425 kts 73°
2026-05-07 11:21 51.13622 11.71952 28980 ft 414 kts 64°
2026-05-07 11:22 51.16299 11.79962 28986 ft 408 kts 63°
2026-05-07 11:22 51.18942 11.88002 28619 ft 408 kts 64°
2026-05-07 11:23 51.20240 11.92003 28267 ft 404 kts 63°
2026-05-07 11:23 51.21732 11.95767 27932 ft 401 kts 52°
2026-05-07 11:23 51.23543 11.99047 27626 ft 397 kts 47°
2026-05-07 11:23 51.25444 12.02222 27225 ft 395 kts 46°
2026-05-07 11:24 51.27356 12.05370 26879 ft 392 kts 46°
2026-05-07 11:24 51.29247 12.08490 26505 ft 390 kts 46°
2026-05-07 11:24 51.31122 12.11605 26136 ft 387 kts 46°
2026-05-07 11:24 51.32979 12.14711 25770 ft 385 kts 46°
2026-05-07 11:25 51.34819 12.17806 25418 ft 383 kts 46°
2026-05-07 11:25 51.36651 12.20901 25058 ft 382 kts 46°
2026-05-07 11:25 51.38472 12.23984 24701 ft 380 kts 46°
2026-05-07 11:25 51.40284 12.27058 24350 ft 379 kts 46°
2026-05-07 11:26 51.42087 12.30122 23990 ft 378 kts 47°
2026-05-07 11:26 51.43890 12.33190 23657 ft 377 kts 47°
2026-05-07 11:26 51.45689 12.36253 23242 ft 376 kts 47°
2026-05-07 11:26 51.47476 12.39302 22833 ft 374 kts 47°
2026-05-07 11:27 51.49254 12.42337 22478 ft 372 kts 47°
2026-05-07 11:27 51.50999 12.45320 22110 ft 369 kts 47°
2026-05-07 11:27 51.52754 12.48324 21748 ft 367 kts 47°
2026-05-07 11:27 51.54495 12.51309 21379 ft 365 kts 47°
2026-05-07 11:28 51.56227 12.54279 21027 ft 363 kts 47°
2026-05-07 11:28 51.57949 12.57238 20683 ft 361 kts 47°
2026-05-07 11:28 51.59660 12.60181 20327 ft 360 kts 47°
2026-05-07 11:28 51.61367 12.63120 19976 ft 358 kts 47°
2026-05-07 11:29 51.63063 12.66044 19634 ft 356 kts 47°
2026-05-07 11:29 51.64752 12.68959 19285 ft 355 kts 47°
2026-05-07 11:29 51.66431 12.71861 18954 ft 353 kts 47°
2026-05-07 11:29 51.68103 12.74754 18601 ft 353 kts 47°
2026-05-07 11:30 51.69774 12.77649 18261 ft 352 kts 47°
2026-05-07 11:30 51.71441 12.80539 17876 ft 352 kts 47°
2026-05-07 11:30 51.73086 12.83393 17497 ft 351 kts 47°
2026-05-07 11:30 51.74742 12.86271 17135 ft 349 kts 47°
2026-05-07 11:31 51.76390 12.89138 16787 ft 347 kts 47°
2026-05-07 11:31 51.77999 12.92050 16471 ft 345 kts 53°
2026-05-07 11:31 51.79321 12.95246 16255 ft 337 kts 59°
2026-05-07 11:31 51.80529 12.98497 15833 ft 339 kts 60°
2026-05-07 11:32 51.82901 13.05014 15207 ft 335 kts 60°
2026-05-07 11:32 51.84080 13.08219 14997 ft 330 kts 60°
2026-05-07 11:32 51.85253 13.11388 14743 ft 326 kts 59°
2026-05-07 11:33 51.86414 13.14513 14569 ft 320 kts 59°
2026-05-07 11:33 51.87550 13.17563 14363 ft 316 kts 59°
2026-05-07 11:33 51.88680 13.20596 14078 ft 314 kts 59°
2026-05-07 11:33 51.89809 13.23627 13754 ft 314 kts 59°
2026-05-07 11:34 51.90942 13.26673 13327 ft 316 kts 59°
2026-05-07 11:34 51.92062 13.29684 12993 ft 315 kts 59°
2026-05-07 11:34 51.93193 13.32731 12652 ft 314 kts 59°
2026-05-07 11:34 51.94316 13.35758 12378 ft 314 kts 59°
2026-05-07 11:35 51.95451 13.38819 12043 ft 321 kts 59°
2026-05-07 11:35 51.96613 13.41959 11645 ft 327 kts 59°
2026-05-07 11:35 51.97944 13.44963 11072 ft 332 kts 40°
2026-05-07 11:35 51.99589 13.46519 10785 ft 327 kts 16°
2026-05-07 11:36 52.01783 13.46989 10663 ft 311 kts 354°
2026-05-07 11:36 52.03820 13.46237 10454 ft 293 kts 334°
2026-05-07 11:36 52.05415 13.44357 10293 ft 279 kts 309°
2026-05-07 11:36 52.06428 13.41783 10156 ft 270 kts 296°
2026-05-07 11:37 52.07272 13.39112 10038 ft 263 kts 295°
2026-05-07 11:37 52.08091 13.36470 9795 ft 261 kts 295°
2026-05-07 11:37 52.08912 13.33834 9522 ft 260 kts 295°
2026-05-07 11:37 52.09730 13.31214 9255 ft 259 kts 295°
2026-05-07 11:38 52.10547 13.28612 8982 ft 258 kts 296°
2026-05-07 11:38 52.11361 13.26027 8714 ft 257 kts 296°
2026-05-07 11:38 52.12178 13.23437 8441 ft 256 kts 296°
2026-05-07 11:38 52.12991 13.20862 8184 ft 256 kts 296°
2026-05-07 11:39 52.13804 13.18285 7909 ft 256 kts 296°
2026-05-07 11:39 52.14606 13.15739 7641 ft 255 kts 296°
2026-05-07 11:39 52.15417 13.13165 7379 ft 255 kts 296°
2026-05-07 11:39 52.16157 13.10537 7105 ft 256 kts 282°
2026-05-07 11:40 52.16249 13.08598 7065 ft 254 kts 264°
2026-05-07 11:40 52.15807 13.05836 6967 ft 257 kts 248°
2026-05-07 11:40 52.15120 13.03113 6901 ft 261 kts 248°
2026-05-07 11:40 52.14212 12.99445 6803 ft 265 kts 248°
2026-05-07 11:41 52.13750 12.97571 6740 ft 262 kts 248°
2026-05-07 11:41 52.13080 12.94841 6680 ft 256 kts 248°
2026-05-07 11:41 52.12434 12.92201 6643 ft 253 kts 248°
2026-05-07 11:41 52.11921 12.89470 6503 ft 256 kts 268°
2026-05-07 11:42 52.12356 12.86693 6213 ft 258 kts 304°
2026-05-07 11:42 52.13671 12.84733 5901 ft 260 kts 333°
2026-05-07 11:42 52.15396 12.83883 5710 ft 259 kts 355°
2026-05-07 11:42 52.17166 12.83862 5437 ft 254 kts
2026-05-07 11:43 52.18739 12.84880 5224 ft 239 kts 42°
2026-05-07 11:43 52.19754 12.86890 5061 ft 223 kts 57°
2026-05-07 11:43 52.20557 12.89010 4924 ft 218 kts 59°
2026-05-07 11:43 52.21300 12.91146 4802 ft 216 kts 62°
2026-05-07 11:44 52.21946 12.93349 4669 ft 215 kts 66°
2026-05-07 11:44 52.22524 12.95595 4548 ft 214 kts 68°
2026-05-07 11:44 52.23061 12.97820 4431 ft 214 kts 68°
2026-05-07 11:44 52.23589 13.00058 4300 ft 207 kts 69°
2026-05-07 11:45 52.24097 13.02241 4167 ft 199 kts 68°
2026-05-07 11:45 52.24577 13.04304 4066 ft 196 kts 68°
2026-05-07 11:45 52.25065 13.06404 3976 ft 203 kts 68°
2026-05-07 11:45 52.25586 13.08639 3785 ft 214 kts 68°
2026-05-07 11:46 52.26110 13.10894 3528 ft 208 kts 68°
2026-05-07 11:46 52.26611 13.13048 3254 ft 198 kts 68°
2026-05-07 11:46 52.27090 13.15102 3051 ft 187 kts 68°
2026-05-07 11:46 52.27543 13.17042 3021 ft 181 kts 68°
2026-05-07 11:47 52.27988 13.18946 3013 ft 178 kts 68°
2026-05-07 11:47 52.28426 13.20817 2998 ft 175 kts 68°
2026-05-07 11:47 52.28864 13.22687 3015 ft 178 kts 68°
2026-05-07 11:47 52.29306 13.24580 3003 ft 178 kts 68°
2026-05-07 11:48 52.29751 13.26480 2896 ft 180 kts 68°
2026-05-07 11:48 52.30198 13.28385 2650 ft 177 kts 68°
2026-05-07 11:48 52.30625 13.30207 2409 ft 170 kts 67°
2026-05-07 11:48 52.31036 13.31957 2182 ft 161 kts 68°
2026-05-07 11:49 52.31430 13.33632 1962 ft 155 kts 67°
2026-05-07 11:49 52.31811 13.35254 1787 ft 153 kts 67°
2026-05-07 11:49 52.32194 13.36879 1563 ft 154 kts 67°
2026-05-07 11:49 52.32585 13.38525 1342 ft 156 kts 66°
2026-05-07 11:50 52.32968 13.40154 1096 ft 151 kts 67°
2026-05-07 11:50 52.33331 13.41692 875 ft 139 kts 67°
2026-05-07 11:50 52.33682 13.43167 645 ft 137 kts 66°
2026-05-07 11:50 52.34020 13.44603 481 ft 135 kts 66°
2026-05-07 11:51 52.34362 13.46070 318 ft 139 kts 68°
2026-05-07 11:51 52.34696 13.47494 180 ft 131 kts 67°
2026-05-07 11:51 52.34998 13.48754 158 ft 101 kts 69°
2026-05-07 11:51 52.35199 13.49603 157 ft 58 kts 69°
2026-05-07 11:52 52.35346 13.49944 153 ft 24 kts 43°
2026-05-07 11:52 52.35468 13.50115 149 ft 23 kts 38°
2026-05-07 11:52 52.35581 13.50269 148 ft 14 kts 44°
2026-05-07 11:52 52.35629 13.50429 147 ft 17 kts 68°
2026-05-07 11:53 52.35678 13.50628 147 ft 19 kts 68°
2026-05-07 11:53 52.35741 13.50807 149 ft 17 kts 10°
2026-05-07 11:53 52.35857 13.50770 152 ft 18 kts 341°
2026-05-07 11:53 52.35929 13.50872 153 ft 15 kts 68°
2026-05-07 11:54 52.35968 13.51038 155 ft 17 kts 69°
2026-05-07 11:54 52.36010 13.51203 154 ft 7 kts 49°
2026-05-07 11:54 52.36066 13.51195 154 ft 11 kts 342°
2026-05-07 11:54 52.36090 13.51180 154 ft 1 kts 339°
2026-05-07 11:55 52.36095 13.51178 154 ft 1 kts 339°
2026-05-07 11:55 52.36096 13.51177 154 ft 0 kts 339°